Flag for Brazil Weather past 2 weeks in Recife, Pernambuco, Brazil

Now
72 °F

Passing clouds.


Feels Like: 67 °F
Forecast: 73 / 81 °F
Wind: 6 mph from North

Location: Recife Aeroporto

Current Time: Sep 17, 2014 at 5:14:51 AM

Latest Report: Sep 17, 2014 at 4:00 AM


Visibility: N/A

Pressure: 29.95 "Hg

Humidity: 94%

Dew point: 70 °F

Location of RecifeLocation

Historic Weather in Recife — Graph

°F

Recife temperature yesterday

Maximum temperature yesterday: 82 °F (at 12:00 PM)
Minimum temperature yesterday: 73 °F (at 12:00 AM)
Average temperature yesterday: 78 °F

Past Weeks' High & Low Weather Summary

 TemperatureHumidityPressure
High84 °F (Sep 2, 12:00 PM)100% (Sep 2, 4:00 AM)30.07 "Hg (Sep 2, 4:00 AM)
Low70 °F (Sep 2, 4:00 AM)61% (Sep 16, 9:00 PM)29.89 "Hg (Sep 4, 1:00 PM)
Average77 °F83%29.99 "Hg
* Reported Sep 2 4:00 AM — Sep 17 4:00 AM, Recife, Weather by CustomWeather, © 2014

Note: Actual official high and low records may vary slightly from our data, if they occured in-between our weather recording intervals... More about our weather records

Advertising

Recife weather history for previous 24 hours

 ConditionsComfort  
Time TempWeatherWind HumidityBarometerVisibility
4:00 AM
Sep 17
72 °FPassing clouds.6 mph94%29.95 "HgN/A
3:00 AM75 °FPassing clouds.6 mph83%29.95 "HgN/A
2:00 AM77 °FPassing clouds.6 mph79%29.98 "HgN/A
1:00 AM77 °FPassing clouds.7 mph79%29.98 "HgN/A
12:00 AM77 °FPassing clouds.6 mph74%30.01 "HgN/A
11:00 PM
Sep 16
77 °FPassing clouds.8 mph74%30.04 "HgN/A
10:00 PM77 °FPassing clouds.8 mph74%30.04 "HgN/A
9:00 PM77 °FPassing clouds.8 mph61%30.01 "HgN/A
8:00 PM77 °FClear.6 mph74%30.01 "Hg10 mi
7:00 PM77 °FClear.8 mph69%30.01 "Hg10 mi
6:00 PM77 °FClear.9 mph74%29.98 "Hg10 mi
5:00 PM79 °FPassing clouds.12 mph70%29.98 "HgN/A
4:00 PM81 °FPassing clouds.12 mph66%29.98 "HgN/A
3:00 PM81 °FPassing clouds.12 mph66%29.98 "HgN/A
2:00 PM81 °FPassing clouds.13 mph66%29.98 "HgN/A
1:00 PM81 °FPassing clouds.13 mph66%29.98 "HgN/A
12:00 PM82 °FScattered clouds.15 mph66%30.01 "HgN/A
11:00 AM81 °FScattered clouds.10 mph66%30.04 "HgN/A
10:00 AM81 °FScattered clouds.13 mph70%30.04 "HgN/A
9:00 AM81 °FPartly sunny.10 mph70%30.07 "HgN/A
8:00 AM79 °FBroken clouds.15 mph74%30.04 "HgN/A
7:00 AM77 °FPartly sunny.10 mph74%30.04 "HgN/A
6:00 AM77 °FPartly sunny.10 mph79%30.01 "HgN/A
5:00 AM75 °FPartly cloudy.7 mph83%29.98 "HgN/A
Weather by CustomWeather, © 2014

See weather overviewHow to use our weather pages